Location: Poughquag
(41.6090°N, 73.6820°W)
Time: 12:40:44
(UTC-04:00)

Tiros 1 - Pass Details

Date: 30 May 2020
Orbit: 630 x 664 km, 48.4° (Epoch: 06 July)

Event Time Altitude Azimuth Distance (km) Brightness Sun altitude
Rises 16:36:16 0° 287° (WNW) 2,955 11.3 39.5°
Reaches altitude 10° 16:38:47 10° 296° (WNW) 2,039 10.6 39.0°
Maximum altitude 16:43:07 35° 3° (N) 1,025 8.5 38.2°
Drops below altitude 10° 16:47:24 10° 70° (ENE) 2,019 9.3 37.4°
Sets 16:49:52 0° 79° (E) 2,922 10.0 37.0°
